Location: Waco, TX
(31.5480°N, 97.1670°W)
Time: 01:44:58
(UTC-06:00)

ISS - All Passes

Search period start: 24 January 2018 00:00
Search period end: 03 February 2018 00:00
Orbit: 402 x 407 km, 51.6° (Epoch: 24 January)

Date Brightness Start Highest point End Pass type
(mag) Time Alt. Az. Time Alt. Az. Time Alt. Az.
24 Jan - 03:07:30 10° NW 03:10:45 67° NE 03:14:00 10° SE night (unlit)
24 Jan - 18:07:56 10° S 18:10:32 22° SE 18:13:10 10° ENE daylight
24 Jan - 19:44:15 10° W 19:46:56 23° NW 19:49:36 10° NNE visible
25 Jan - 02:15:28 10° NNW 02:18:25 30° NE 02:21:21 10° ESE night (unlit)
25 Jan - 03:52:30 10° W 03:54:41 17° SW 03:56:51 10° S night (unlit)
25 Jan - 17:17:55 10° SE 17:18:25 10° SE 17:18:55 10° ESE daylight
25 Jan - 18:51:23 10° WSW 18:54:32 47° NW 18:57:41 10° NNE visible
26 Jan - 01:23:46 10° N 01:25:57 17° NE 01:28:09 10° ENE night (unlit)
26 Jan - 02:59:28 10° WNW 03:02:31 36° SW 03:05:33 10° SSE night (unlit)
26 Jan - 17:58:59 10° SW 18:02:13 72° SE 18:05:28 10° NE daylight
26 Jan - 19:38:01 10° NW 19:39:01 11° NNW 19:40:01 10° NNW visible
27 Jan - 02:06:59 10° NW 02:10:16 90° SE 02:13:31 10° SE night (unlit)
27 Jan - 17:07:06 10° SSW 17:09:59 29° SE 17:12:52 10° ENE daylight
27 Jan - 18:44:03 10° W 18:46:28 19° NW 18:48:53 10° NNE visible
28 Jan - 01:14:49 10° NNW 01:17:55 38° NE 01:21:00 10° ESE night (unlit)
28 Jan - 02:52:34 10° W 02:54:05 13° SW 02:55:37 10° SSW night (unlit)
28 Jan - 16:16:05 10° SSE 16:17:48 14° SE 16:19:31 10° E daylight
28 Jan - 17:50:58 10° WSW 17:53:59 36° NW 17:57:02 10° NNE daylight
29 Jan - 00:22:57 10° NNW 00:25:27 20° NE 00:27:58 10° E night (unlit)
29 Jan - 01:59:04 10° WNW 02:01:55 27° SW 02:04:44 10° S night (unlit)
29 Jan - 16:58:22 10° SW 17:01:37 83° NW 17:04:52 10° NE daylight
29 Jan - 23:31:39 10° N 23:32:53 12° NNE 23:34:08 10° NE night (unlit)
30 Jan - 01:06:24 10° NW 01:09:39 66° SW 01:12:53 10° SE night (unlit)
30 Jan - 16:06:15 10° SSW 16:09:19 39° SE 16:12:23 10° ENE daylight
30 Jan - 17:43:49 10° WNW 17:45:54 16° NW 17:47:59 10° N daylight
31 Jan - 00:14:06 10° NW 00:17:18 51° NE 00:20:29 10° ESE night (unlit)
31 Jan - 15:14:48 10° S 15:17:05 18° SE 15:19:21 10° E daylight
31 Jan - 16:50:30 10° WSW 16:53:22 28° NW 16:56:15 10° NNE daylight
31 Jan - 23:22:04 10° NNW 23:24:50 25° NE 23:27:35 10° E night (unlit)
01 Feb - 00:58:39 10° WNW 01:01:10 21° SW 01:03:43 10° S night (unlit)
01 Feb - 15:57:42 10° SW 16:00:55 61° NW 16:04:08 10° NE daylight
01 Feb - 22:30:27 10° N 22:32:15 14° NNE 22:34:04 10° ENE night (unlit)
02 Feb - 00:05:45 10° NW 00:08:55 48° SW 00:12:04 10° SSE night (unlit)
02 Feb - 15:05:22 10° SSW 15:08:33 54° SE 15:11:44 10° NE daylight
02 Feb - 16:43:36 10° WNW 16:45:14 13° NNW 16:46:52 10° N daylight
02 Feb - 23:13:17 10° NW 23:16:33 68° NE 23:19:47 10° SE night (unlit)
